sat.trackr.live / text

‹ back to catalog

STARLINK-36344

NORAD 67710 · 2026-025T

PAYLOAD ACTIVE UNKNOWN

§ Identity

Operator
Country
US
Launch date
2026-02-07
Launch site
AFWTR
Launch vehicle
Mass (kg)
RCS (m²)

Purposes: comms

External: N2YO · Heavens-Above · Gunter

§ Orbital elements

Epoch: 2026-09-19T13:39:59.661792Z

Period
93.91 min
Inclination
97.2843°
Eccentricity
0.0000824
Mean motion
15.33449901 rev/d
Perigee alt
465.0 km
Apogee alt
466.1 km
Semi-major
6,843.7 km
B*
5.9897e-4
RAAN
12.4924°
Arg perigee
89.8115°
Mean anomaly
270.3222°
Rev number
3,573

§ Raw data

STARLINK-363441 67710U 26025T   26262.56944053  .00019314  00000+0  59897-3 0  99982 67710  97.2843  12.4924 0000824  89.8115 270.3222 15.33449901 35739

JSON: /api/v1/satellites/67710 · /tle

For live sub-satellite position, see the globe view (requires WebGL).

§ Visibility from observer

Set your observer location to see the next 7 days of passes ≥ 10°. The values pass through the URL so the page stays shareable.

No JS? Fill the form by hand. The geolocation button needs JavaScript.